Wind_Speed
23 22 20 19 19 18 17 15 13 11 10 9 8 6 6 5 4 3 4 3 3 4 4 5 4 3 2 2 3 4 4 4 4 5 5 5 5 5 5 6 5 5 5 5
24 23 21 22 22 20 18 16 14 12 11 10 10 9 8 7 6 5 5 4 4 4 4 5 5 4 3 3 4 4 5 5 5 5 6 5 5 5 6 6 6 5 5 5
24 23 24 24 23 21 19 16 15 14 13 12 11 11 9 9 8 7 7 7 6 5 4 5 5 5 5 4 5 5 6 6 6 7 7 6 7 7 7 7 6 6 6 6
25 25 26 26 25 22 19 18 18 16 15 14 13 12 11 10 10 9 9 10 9 7 6 6 6 5 5 5 6 6 6 6 7 7 7 7 7 7 8 8 8 7 7 7
26 26 26 26 24 22 20 18 18 17 17 17 16 15 12 12 12 11 10 10 9 7 7 7 7 6 6 5 6 6 6 6 7 7 7 7 8 9 8 9 9 8 8 8
27 27 27 26 25 23 22 21 20 20 19 19 17 17 15 14 13 12 11 10 8 7 8 8 8 7 7 7 7 6 6 6 7 8 8 8 9 9 9 9 10 9 8 8
28 28 27 27 26 25 24 24 23 23 22 18 17 19 17 15 14 13 13 12 10 9 9 9 8 8 8 7 7 8 8 8 8 9 8 8 9 9 9 9 10 9 9 9
28 28 27 26 26 26 25 25 24 24 22 19 19 20 17 15 14 14 13 12 11 10 9 9 9 8 8 8 8 9 9 9 9 9 9 9 9 9 9 8 8 9 9 9
28 27 27 26 26 27 26 27 25 24 22 20 19 18 17 16 16 16 16 14 12 11 10 10 9 9 9 10 10 10 10 10 10 10 9 9 9 9 9 9 9 9 9 9
28 28 27 27 27 27 26 26 26 26 24 22 20 18 14 14 16 16 16 14 13 13 11 12 10 10 10 10 10 11 10 10 10 10 10 10 9 9 9 9 9 10 10 10
28 28 28 28 28 26 26 27 27 27 26 24 21 18 15 14 15 15 16 16 14 14 13 11 11 10 11 10 11 11 11 11 9 9 10 11 10 10 9 9 9 10 11 11
28 28 28 27 26 26 26 27 27 27 27 26 24 20 17 16 16 16 17 16 15 14 13 13 12 11 12 11 11 11 11 10 9 9 10 10 10 9 9 10 10 11 11 11
29 29 28 27 27 26 26 26 27 28 27 27 26 22 19 17 17 17 17 16 14 14 13 12 11 13 12 11 11 11 10 9 9 9 10 10 9 9 10 10 10 11 11 10
30 30 29 27 26 26 26 26 27 28 29 28 27 24 22 21 19 19 18 17 16 15 14 12 11 12 12 12 12 11 9 9 9 10 9 10 10 9 10 10 10 11 11 11
31 31 30 29 27 27 27 26 27 28 28 28 27 26 23 22 22 20 19 18 17 16 14 12 12 12 12 12 11 10 9 9 10 10 10 9 9 10 10 10 11 11 12 12
31 31 31 30 29 28 28 27 27 28 28 28 28 27 24 23 22 21 20 17 17 17 16 14 13 13 12 11 10 10 10 10 11 11 11 12 11 11 10 11 11 12 11 12
31 32 32 32 30 30 30 28 27 27 28 29 28 26 24 23 22 21 21 20 18 17 17 15 14 14 12 11 11 11 12 12 12 12 12 11 11 12 12 12 12 12 12 12
31 32 32 32 32 33 29 28 28 27 27 27 28 27 26 25 24 24 22 21 20 18 17 17 16 17 17 15 14 13 13 13 13 12 12 12 12 13 13 13 12 13 13 13
33 32 33 33 33 33 30 28 28 29 28 27 27 27 27 26 26 25 24 24 22 21 19 18 19 19 18 16 15 15 15 15 14 14 14 13 14 14 14 14 14 14 14 14
33 33 34 34 35 34 31 29 28 29 28 27 27 28 28 28 28 27 26 26 24 23 22 20 18 18 18 17 17 16 17 16 15 14 14 14 15 15 15 15 14 15 16 16
34 34 34 34 35 34 32 31 30 30 27 27 27 28 29 30 29 28 27 27 26 24 23 21 19 18 18 18 18 18 18 17 17 16 16 15 15 16 16 16 16 16 17 17
35 34 34 34 35 33 31 32 31 30 28 28 28 28 28 28 28 28 28 28 26 25 23 22 20 19 19 18 18 18 17 17 17 17 17 17 17 17 17 18 18 17 17 17
35 35 34 34 33 30 30 30 31 30 29 28 28 28 28 27 28 28 29 29 27 25 24 21 20 20 20 19 19 19 19 18 18 18 17 17 18 18 18 18 18 18 18 18
36 35 35 34 33 32 30 30 31 30 30 29 28 27 27 26 26 27 27 26 25 24 22 21 21 21 20 20 20 20 20 20 19 19 18 18 19 19 18 19 19 19 18 18
34 34 35 35 34 33 31 29 30 30 29 28 27 27 27 27 27 26 27 26 25 23 22 21 21 21 20 20 21 21 21 21 20 19 19 19 19 19 19 20 20 20 20 20
35 34 34 34 34 33 31 30 30 30 30 30 29 28 27 28 28 27 26 26 24 23 21 21 22 22 21 21 21 21 21 21 21 21 20 20 20 20 20 20 20 19 20 20
Wind_Direction
214 213 214 212 209 208 210 210 207 211 217 228 240 254 259 261 268 289 303 313 333 343 341 336 323 312 330 347 345 336 326 324 323 326 329 321 318 315 315 321 328 326 320 321
214 212 210 212 212 211 214 216 212 211 216 227 236 253 263 271 271 288 288 282 311 319 306 318 322 310 314 318 325 325 317 313 312 317 320 312 308 312 317 320 320 315 315 314
214 211 211 212 213 214 216 215 211 210 211 222 235 248 263 277 281 284 279 274 293 303 302 301 306 319 321 318 316 316 313 310 309 311 312 304 302 304 305 305 309 308 306 298
212 211 212 213 214 214 215 215 211 210 215 223 238 254 263 274 279 284 275 272 283 287 284 290 289 297 303 309 308 312 310 308 309 315 321 314 309 307 305 297 295 297 294 294
211 211 213 215 215 215 213 214 214 213 221 228 234 248 260 265 272 280 274 272 279 289 289 290 298 295 299 308 312 311 316 313 317 319 322 322 312 308 304 298 290 288 289 289
211 211 214 215 215 215 212 214 214 215 222 228 234 245 252 256 268 275 273 271 278 281 283 290 294 298 305 304 305 308 312 307 309 310 313 319 318 311 302 295 294 288 287 289
212 213 214 214 213 213 213 215 216 219 226 231 236 246 256 259 266 271 271 270 271 274 276 274 279 290 298 301 299 301 301 301 299 301 308 312 314 313 307 298 294 289 289 286
213 213 215 216 216 215 215 218 221 224 228 233 238 245 253 257 260 262 264 268 270 273 274 277 277 279 287 294 296 296 295 296 297 300 305 305 306 309 308 302 298 293 292 292
214 213 215 217 218 218 217 220 223 226 230 232 237 245 248 251 253 256 260 263 268 276 274 275 275 270 276 281 285 288 289 292 294 295 297 295 296 300 303 301 300 301 294 291
215 216 215 217 218 219 221 222 223 226 229 234 239 242 248 243 254 257 259 267 269 273 265 265 267 268 269 273 281 291 293 294 292 289 289 291 289 288 291 296 296 298 296 292
216 217 215 216 218 220 221 222 224 227 230 233 238 240 244 252 259 262 267 268 269 273 267 256 262 268 271 272 277 285 290 287 286 287 290 289 285 283 287 293 295 296 296 291
215 217 216 217 218 219 221 223 224 226 228 232 238 244 250 254 254 259 260 263 268 268 266 264 266 267 271 272 275 281 284 280 279 283 290 294 289 281 283 288 292 297 296 290
214 216 217 218 217 217 218 220 223 226 229 232 236 241 246 251 255 258 256 257 257 261 268 269 272 275 272 275 277 279 280 277 279 283 288 290 290 284 284 290 293 294 297 291
214 217 218 219 219 220 220 220 222 224 227 231 235 239 244 252 257 256 254 255 255 260 267 272 275 277 275 273 275 282 278 277 282 283 284 287 290 291 290 288 292 290 290 285
215 218 221 219 219 221 222 222 224 226 230 233 235 238 244 252 256 257 257 255 260 264 265 267 273 275 272 273 275 278 281 281 282 285 288 287 292 293 294 294 294 294 290 284
217 218 219 220 220 222 224 224 225 227 230 234 236 239 244 250 253 254 259 260 263 266 266 269 271 273 268 267 270 272 276 281 281 283 286 288 289 292 295 297 300 300 298 286
219 220 220 221 222 225 227 226 228 230 230 233 235 238 242 246 250 254 258 262 266 270 268 269 270 275 273 268 265 268 274 277 281 287 289 287 287 290 292 294 297 302 303 298
223 223 221 220 221 226 227 229 231 232 233 233 235 237 239 242 250 254 259 263 266 270 272 274 272 274 273 273 270 270 272 275 279 285 288 288 289 292 292 292 293 299 302 302
225 225 223 221 223 226 225 227 231 232 233 235 236 236 239 242 249 253 257 262 266 269 272 274 270 268 269 271 270 269 269 272 277 281 286 287 289 291 290 290 291 295 300 301
226 226 226 224 225 225 224 227 232 234 233 233 236 237 241 243 248 255 259 262 264 268 271 273 271 266 265 266 266 268 272 273 275 278 283 287 289 291 291 291 291 293 294 293
225 225 226 226 226 226 225 227 230 233 234 236 238 241 243 245 249 254 259 262 265 267 269 268 267 264 264 264 264 266 268 269 272 276 281 286 288 288 290 291 291 292 293 291
224 225 225 226 226 225 225 227 230 234 236 238 241 243 247 250 251 253 257 259 263 266 267 266 267 267 266 264 266 270 270 269 272 275 282 284 285 287 292 291 290 290 291 290
224 225 225 225 226 224 223 227 231 234 236 238 242 245 250 253 254 254 256 259 262 265 264 261 263 265 264 265 267 268 269 270 272 276 281 285 288 291 293 294 292 291 290 289
224 225 226 226 224 224 224 227 229 233 237 238 242 246 251 252 254 253 256 258 261 262 259 260 262 264 263 262 264 265 267 269 272 276 279 284 287 292 295 297 293 290 289 289
223 225 227 228 225 224 226 228 230 233 236 238 241 243 249 251 252 253 256 258 259 259 258 259 261 263 263 263 263 265 267 269 271 273 276 281 286 290 293 295 293 290 289 288
224 227 229 227 227 228 230 231 231 234 239 241 243 246 249 252 254 254 255 255 256 257 259 258 261 261 261 263 264 265 265 267 269 272 276 281 284 287 290 293 293 292 292 290
Height
5888 5893 5896 5899 5901 5903 5905 5907 5909 5911 5912 5913 5914 5915 5917 5917 5918 5918 5918 5918 5917 5917 5917 5916 5916 5915 5915 5914 5914 5913 5913 5912 5912 5911 5911 5910 5909 5909 5908 5907 5906 5906 5905 5904
5886 5890 5893 5895 5897 5900 5902 5905 5907 5908 5909 5911 5912 5913 5914 5915 5916 5917 5916 5916 5916 5916 5916 5916 5915 5915 5914 5914 5913 5912 5912 5911 5911 5910 5910 5909 5908 5907 5907 5906 5905 5904 5904 5903
5882 5887 5889 5891 5894 5897 5900 5903 5904 5906 5907 5908 5910 5912 5913 5914 5915 5915 5916 5915 5915 5915 5915 5915 5914 5914 5913 5912 5912 5911 5911 5910 5910 5909 5908 5907 5906 5906 5906 5905 5904 5903 5902 5902
5877 5882 5885 5887 5890 5894 5897 5900 5902 5903 5905 5906 5908 5909 5911 5912 5912 5913 5914 5914 5913 5913 5913 5913 5913 5913 5912 5911 5910 5910 5909 5909 5908 5907 5906 5906 5905 5904 5904 5903 5902 5901 5901 5900
5873 5877 5881 5884 5888 5891 5895 5897 5899 5900 5902 5903 5905 5906 5909 5909 5910 5911 5911 5911 5911 5912 5911 5911 5912 5911 5910 5909 5908 5907 5907 5907 5906 5906 5905 5904 5903 5902 5902 5901 5900 5899 5899 5898
5869 5872 5876 5880 5884 5888 5891 5894 5895 5897 5899 5901 5903 5904 5905 5906 5907 5908 5909 5909 5909 5909 5909 5910 5910 5909 5908 5908 5907 5906 5905 5906 5905 5904 5903 5902 5902 5900 5899 5898 5897 5896 5896 5896
5864 5868 5872 5876 5880 5884 5887 5890 5892 5894 5895 5898 5900 5900 5903 5904 5905 5905 5905 5906 5906 5907 5908 5908 5908 5907 5907 5906 5905 5905 5904 5904 5903 5902 5901 5901 5900 5898 5897 5896 5895 5894 5894 5893
5859 5864 5868 5872 5876 5879 5883 5886 5889 5892 5893 5896 5897 5897 5900 5901 5902 5902 5902 5903 5904 5905 5905 5905 5905 5905 5904 5904 5904 5903 5902 5902 5901 5900 5899 5898 5897 5896 5895 5894 5893 5892 5891 5891
5855 5860 5864 5868 5872 5875 5879 5882 5885 5888 5890 5892 5893 5894 5896 5897 5898 5898 5899 5900 5901 5901 5902 5903 5902 5902 5902 5902 5901 5900 5900 5900 5899 5898 5897 5896 5895 5894 5893 5892 5891 5890 5889 5888
5849 5855 5859 5864 5867 5870 5875 5878 5881 5883 5885 5887 5889 5891 5893 5893 5893 5894 5895 5897 5897 5897 5897 5898 5899 5898 5898 5899 5898 5898 5898 5897 5896 5895 5895 5894 5893 5892 5891 5890 5889 5888 5887 5886
5845 5850 5855 5858 5862 5866 5870 5873 5876 5879 5881 5883 5885 5889 5889 5890 5891 5891 5892 5893 5894 5894 5894 5894 5894 5894 5895 5895 5896 5896 5894 5894 5893 5893 5892 5890 5889 5889 5888 5888 5887 5886 5885 5884
5840 5845 5849 5854 5858 5862 5865 5868 5871 5874 5877 5879 5881 5886 5885 5886 5887 5888 5888 5889 5889 5890 5890 5890 5890 5891 5891 5891 5892 5892 5891 5891 5890 5889 5889 5888 5886 5886 5885 5885 5884 5883 5882 5881
5836 5840 5845 5849 5854 5857 5859 5863 5866 5869 5872 5874 5876 5882 5881 5882 5883 5884 5884 5885 5886 5886 5887 5887 5888 5887 5887 5888 5888 5888 5888 5888 5887 5886 5886 5885 5884 5883 5883 5882 5881 5880 5879 5878
5832 5836 5841 5845 5848 5851 5854 5858 5861 5864 5866 5869 5872 5875 5877 5878 5879 5879 5880 5881 5882 5883 5884 5884 5885 5884 5885 5886 5885 5885 5884 5885 5884 5884 5883 5882 5881 5881 5880 5879 5878 5877 5876 5875
5827 5831 5836 5840 5843 5846 5850 5853 5856 5859 5862 5865 5868 5870 5873 5874 5875 5875 5876 5877 5878 5879 5880 5881 5882 5882 5882 5882 5882 5882 5882 5882 5882 5881 5880 5879 5879 5878 5877 5876 5875 5873 5872 5871
5822 5826 5831 5835 5838 5841 5845 5848 5851 5854 5857 5860 5863 5866 5868 5869 5870 5871 5872 5873 5874 5875 5876 5877 5878 5878 5878 5878 5879 5879 5879 5879 5878 5878 5877 5876 5876 5874 5873 5872 5871 5870 5869 5867
5817 5821 5826 5830 5833 5836 5840 5844 5846 5849 5852 5855 5857 5861 5863 5864 5865 5866 5868 5869 5870 5871 5872 5873 5873 5874 5874 5875 5875 5875 5875 5875 5875 5874 5872 5872 5872 5871 5870 5869 5868 5867 5866 5864
5812 5816 5820 5825 5829 5831 5837 5839 5841 5844 5846 5850 5852 5855 5858 5859 5861 5862 5863 5865 5866 5867 5868 5869 5869 5870 5871 5871 5871 5871 5871 5871 5871 5871 5870 5869 5869 5868 5867 5866 5865 5864 5862 5860
5806 5811 5815 5819 5822 5826 5831 5833 5835 5838 5840 5844 5847 5849 5852 5854 5855 5857 5859 5860 5862 5863 5863 5864 5865 5866 5867 5867 5866 5867 5867 5867 5867 5867 5866 5866 5865 5864 5863 5862 5861 5860 5858 5857
5800 5804 5809 5812 5816 5819 5826 5828 5830 5833 5835 5838 5841 5843 5846 5848 5850 5852 5854 5855 5857 5858 5859 5860 5860 5861 5862 5862 5862 5862 5862 5862 5862 5862 5862 5861 5861 5860 5859 5858 5857 5856 5854 5853
5793 5797 5801 5805 5808 5813 5819 5822 5825 5828 5831 5833 5835 5838 5840 5842 5845 5847 5848 5849 5851 5852 5854 5855 5855 5855 5856 5856 5856 5856 5857 5857 5857 5857 5857 5857 5856 5855 5854 5853 5852 5851 5850 5848
5786 5790 5794 5798 5802 5809 5813 5816 5820 5822 5825 5827 5830 5832 5834 5836 5838 5840 5842 5843 5844 5846 5847 5848 5849 5849 5850 5851 5851 5851 5851 5852 5851 5852 5853 5852 5851 5851 5849 5848 5847 5846 5845 5843
5779 5784 5788 5793 5798 5803 5806 5810 5813 5816 5819 5822 5824 5826 5828 5830 5832 5834 5835 5837 5838 5839 5840 5841 5842 5844 5845 5845 5846 5846 5847 5847 5847 5847 5847 5847 5846 5845 5844 5843 5842 5840 5839 5838
5773 5777 5781 5786 5790 5795 5799 5803 5806 5810 5812 5815 5817 5820 5822 5824 5826 5827 5829 5830 5831 5832 5833 5835 5837 5838 5839 5840 5841 5841 5841 5842 5842 5842 5842 5841 5840 5839 5838 5837 5836 5834 5833 5832
5767 5771 5775 5779 5784 5788 5792 5796 5800 5803 5806 5809 5812 5814 5815 5817 5819 5821 5822 5824 5824 5826 5827 5829 5830 5832 5833 5834 5835 5835 5836 5836 5836 5836 5836 5836 5835 5834 5833 5832 5830 5829 5828 5827
5761 5765 5769 5772 5777 5782 5786 5790 5793 5797 5800 5802 5805 5807 5808 5810 5812 5814 5815 5817 5818 5820 5821 5823 5824 5826 5827 5828 5829 5829 5830 5830 5831 5831 5830 5830 5829 5829 5827 5825 5824 5823 5822 5821